Regional Weather Roundup
Issued by NWS Mobile, AL

Home | Current Version | Previous Version | Text Only | Print | Product List | Glossary Off
Versions: 1 2 3 4 5 6 7 8 9 10 11 12 13 14 15 16 17 18 19 20 21 22 23 24 25 26 27 28

000
ASUS44 KMOB 260413
RWRMOB
REGIONAL WEATHER ROUNDUP
NATIONAL WEATHER SERVICE MOBILE AL
1100 PM CDT FRI MAY 25 2018

NOTE: "FAIR" INDICATES FEW OR NO CLOUDS BELOW 12,000 FEET WITH NO
      SIGNIFICANT WEATHER AND/OR OBSTRUCTIONS TO VISIBILITY.

  * THESE STATIONS ARE PART OF THE UNIVERSITY OF SOUTH ALABAMA
    MESONET AND ARE NOT UNDER NWS OR FAA QUALITY CONTROL.

ALZ061>064-260500-
COASTAL ALABAMA

CITY           SKY/WX    TMP DP  RH WIND       PRES   REMARKS
MOBILE REG APT FAIR      73  71  93 N3        29.96S
BROOKLEY FIELD FAIR      78  74  87 NE5       29.96F
USA CAMPUS*    NOT AVBL
DOG RIVER*       N/A     75  73  94 CALM        N/A


CITY           SKY/WX    TMP DP  RH WIND       PRES   REMARKS
GULF SHORES    FAIR      73  73 100 CALM      29.95F

$$

ALZ051>060-260500-
INTERIOR SOUTHWEST AND SOUTH CENTRAL ALABAMA

CITY           SKY/WX    TMP DP  RH WIND       PRES   REMARKS
GREENVILLE     FAIR      71  68  90 CALM      29.96S
EVERGREEN      FAIR      72  69  90 CALM      29.96F
ATMORE*          N/A    N/A N/A N/A CALM      30.67F
ANDALUSIA/OPP  FAIR      73  70  90 CALM      29.96F FOG
ANDALUSIA*       N/A     70  70 100 CALM      29.97S
FLORALA APT    FAIR      74  70  87 CALM      29.98S
FLORALA*         N/A     72  70  94 CALM      30.64F

$$

FLZ001>006-260500-
WESTERN FLORIDA PANHANDLE

CITY           SKY/WX    TMP DP  RH WIND       PRES   REMARKS
PENSACOLA      FAIR      77  70  79 W5        29.95F
NAS PENSACOLA  FAIR      72  69  90 CALM      29.95F
MILTON         FAIR      71  71 100 CALM      29.95F
WHTNG S FIELD  FAIR      72  72 100 CALM      29.95F


CITY           SKY/WX    TMP DP  RH WIND       PRES   REMARKS
JAY*             N/A     75  70  83 CALM        N/A
DUKE FIELD     FAIR      71  69  95 S3        29.96F
CRESTVIEW      FAIR      71  69  93 CALM      29.97F
VALPARAISO     PTCLDY    76  70  81 CALM      29.95S
DESTIN         FAIR      80  70  71 SW3       29.95F

$$

MSZ076-079-260500-
INTERIOR SOUTHEAST MISSISSIPPI

CITY           SKY/WX    TMP DP  RH WIND       PRES   REMARKS
LEAKESVILLE*   NOT AVBL
AGRICOLA*        N/A     70  70 100 CALM      29.96R

$$

MARINE OBSERVATIONS

STATION/POSITION TIME  TEMP    WIND        PRES    WAVE
                       AIR SEA DIR/SP/G            HT/PER
                 (UTC) (F)     (DEG/KT/KT) (MB)    (FT/S)
PETIT BOIS ISLND 0336   80     170/  6/  7 1014.7F
GRAND BAY        0245   80      80/  2     1015.0S
KATRINA CUT      0330   80     120/  4     1014.6S
CEDAR POINT      0330   80     120/  4     1014.2S
E DAUPHIN ISLAND 0300   80     100/  5/  6 1014.3R
MIDDLE BAY LIGHT 0330   80     140/  7     1014.2S
USCG MOBILE BAY  0336   76 82   30/  2/  3 1014.5S
STATE DOCKS      0336   76 82              1014.4S
MEAHER PARK      0330   76      40/  2     1015.2R
WEEKS BAY        0245   75                 1014.0S
FORT MORGAN      0336   80     140/ 14/ 15   N/A
12 S ORANGE BCH  0350   81     130/  4/  6 1014.1F   2/ 7
PENSACOLA BAY    0336   79 84  320/  2/  3 1014.5F
64 S DAUPHIN ISL 0350      86  150/  6/  8 1014.3R   1/ 6
67 S FORT MORGAN 0330   79                 1014.2S

$$

SELECTED LOCATIONS ACROSS THE REGION

CITY           SKY/WX    TMP DP  RH WIND       PRES   REMARKS
NEW ORLEANS    FAIR      77  72  84 CALM      29.94R
GULFPORT       FAIR      76  72  87 CALM      29.94S
PASCAGOULA AP  FAIR      75  72  90 CALM      29.94F
PASCAGOULA*      N/A     75  73  94 CALM      29.95R
HATTIESBURG    CLOUDY    72  71  97 CALM      29.96S
LAUREL         MOCLDY    70  70 100 CALM      29.96F
MERIDIAN       FAIR      71  68  90 S6        29.95R
JACKSON        FAIR      71  69  93 CALM      29.95R
MONTGOMERY     MOCLDY    73  72  96 CALM      29.96S FOG
TROY           FAIR      71  69  93 CALM      29.98S
ASHFORD*         N/A     70  70 100 CALM      29.97S
DOTHAN         CLOUDY    76  72  87 SE3       30.01R
PANAMA CITY    FAIR      73  71  93 CALM      29.95F

$$





USA.gov is the U.S. government's official web portal to all federal, state and local government web resources and services.